Weather Roundup
Issued by NWS Corpus Christi, TX

Home | Current Version | Previous Version | Text Only | Print | Product List | Glossary Off
Versions: 1 2 3 4 5 6 7 8 9 10 11 12 13 14 15 16 17 18 19 20 21 22 23 24 25 26 27 28 29 30 31 32 33 34 35 36 37 38 39 40 41 42 43 44 45 46 47 48 49 50

000
ASUS44 KCRP 161910
HRRCRP

SOUTH TEXAS REGIONAL WEATHER ROUNDUP
NATIONAL WEATHER SERVICE CORPUS CHRISTI TX
200 PM CDT WED APR 16 2014


TXZ229>244-162000-
...CORPUS CHRISTI AREA OBSERVATIONS...

CITY           SKY/WX    TMP DP  RH WIND       PRES   REMARKS
CORPUS CHRISTI PTSUNNY   73  47  39 S15G23    30.05F
NAS CORPUS CHR PTSUNNY   71  51  49 SE17G24   30.05F
ROCKPORT       MOSUNNY   71  49  45 SE17G24   30.07F
KINGSVILLE NAS PTSUNNY   74  51  44 SE16G24   30.03F
ALICE          MOSUNNY   74  47  38 SE16      30.02F
FALFURRIAS     MOSUNNY   77  48  35 S13G20    30.01F
$$

...VICTORIA AREA OBSERVATIONS...

CITY           SKY/WX    TMP DP  RH WIND       PRES   REMARKS
VICTORIA       CLOUDY    69  50  50 SE22G30   30.07F
BEEVILLE       FAIR      74  44  34 SE13G21   30.04F
PLEASANTON     HVY RAIN  73  39  29 SE7G18    30.03F
SAN ANTONIO    MOSUNNY   70  39  32 S16G25    30.03F
$$

...LAREDO AREA OBSERVATIONS...

CITY           SKY/WX    TMP DP  RH WIND       PRES   REMARKS
LAREDO         MOSUNNY   74  42  31 SE16      30.01F
COTULLA        SUNNY     72  36  26 SE13G20   30.01F
DEL RIO        SUNNY     73  36  25 SE18G29   29.94F
MCALLEN        PTSUNNY   75  50  41 SE14G24   30.00F
HEBBRONVILLE   MOSUNNY   72  41  33 SE14G20   30.01F
$$

...OTHER TEXAS OBSERVATIONS...

CITY           SKY/WX    TMP DP  RH WIND       PRES   REMARKS
BROWNSVILLE    PTSUNNY   76  52  43 S16G23    30.03F
HOUSTON        PTSUNNY   62  38  40 E15G22    30.13F
COL. STATION   MOSUNNY   65  45  48 SE16      30.09F
AUSTIN         MOSUNNY   68  42  38 S16       30.03F
WACO           MOSUNNY   66  42  41 SE17G28   30.04F
FORT WORTH     PTSUNNY   65  33  30 SE26G33   30.03F
WICHITA FALLS  MOSUNNY   68  27  21 S20G37    29.91F
LUBBOCK        MOSUNNY   75  14  10 SW15G22   29.81F
EL PASO        MOSUNNY   77   8   7 W9        29.85F
$$

...MARINE OBSERVATIONS...

STATION/POSITION TIME  SKY/WX   TEMP    WIND        PRES    VSBY  WAVE   SWELL
                                AIR SEA DIR/SP/G                  HT/PER HT/PER
                 (UTC)          (F)     (DEG/KT/KT) (MB)    (MI)  (FT/S) (FT/S)
PORT ARANSAS     1800            63 65  130/ 15/ 17 1019.0F
BUOY 90 E PORT A NOT AVBL
BUOY 45 SE BAFFI 1900            65 69  120/ 14/ 16 1017.7F         3/ 7   2/ 7
BUOY 200 E PT IS NOT AVBL
BUOY 15 E GALVES 1900            60 66  100/ 12/ 16 1020.0F         2/ 5
$$



USA.gov is the U.S. government's official web portal to all federal, state and local government web resources and services.